Home > Weather > Idaho Falls > Past weeks

Flag for USA Past Weather in Idaho Falls, Idaho, USA — Yesterday and Last 2 Weeks

Now
92 °F

Scattered clouds.


Feels Like: 89 °F
Forecast: 54 / 89 °F
Wind: 7 mph from Southeast

Location: Fanning Field

Current Time: Jun 29, 2016 at 5:43:44 PM

Latest Report: Jun 29, 2016 at 4:53 PM


Visibility: 10 mi

Pressure: 29.92 "Hg (25.51 "Hg at 1429m altitude)

Humidity: 22%

Dew Point: 48 °F

Location of Idaho FallsLocation

Past Weather in Idaho Falls — Graph

°F

Idaho Falls Temperature Yesterday

Maximum temperature yesterday: 93 °F (at 5:53 PM)
Minimum temperature yesterday: 47 °F (at 5:53 AM)
Average temperature yesterday: 72 °F

High & Low Weather Summary for the Past Weeks

 TemperatureHumidityPressure
High93 °F (Jun 28, 5:53 PM)90% (Jun 23, 5:53 AM)30.29 "Hg (Jun 23, 5:53 AM)
Low36 °F (Jun 25, 4:53 AM)11% (Jun 24, 7:53 PM)29.57 "Hg (Jun 15, 8:53 PM)
Average65 °F45%30.01 "Hg
* Reported Jun 14 3:53 PM — Jun 29 3:53 PM, Idaho Falls, Weather by CustomWeather, © 2016

Note: Actual official high and low records may vary slightly from our data, if they occured in-between our weather recording intervals... More about our weather records

Advertising

Idaho Falls Weather History for the Previous 24 Hours

Scroll right to see more
 ConditionsComfort  
Time TempWeatherWind HumidityBarometerVisibility
3:53 PM
Wed, Jun 29
91 °FScattered clouds.6 mph18%29.94 "Hg10 mi
2:53 PM89 °FScattered clouds.7 mph28%29.97 "Hg10 mi
1:53 PM87 °FSunny.7 mph35%29.99 "Hg10 mi
12:53 PM85 °FSunny.6 mph34%30.01 "Hg10 mi
11:53 AM83 °FSunny.5 mph30%29.99 "Hg10 mi
10:53 AM78 °FSunny.7 mph36%30.01 "Hg10 mi
9:53 AM73 °FSunny.7 mph40%30.01 "Hg10 mi
8:53 AM65 °FPassing clouds.3 mph59%30.02 "Hg10 mi
7:53 AM58 °FPassing clouds.3 mph75%30.01 "Hg10 mi
6:53 AM53 °FPassing clouds.5 mph77%30.01 "Hg10 mi
5:53 AM52 °FClear.3 mph80%29.99 "Hg10 mi
4:53 AM52 °FClear.5 mph80%29.98 "Hg10 mi
3:53 AM52 °FClear.5 mph80%29.99 "Hg10 mi
2:53 AM53 °FClear.9 mph77%30.00 "Hg10 mi
1:53 AM57 °FClear.6 mph64%29.98 "Hg10 mi
12:53 AM57 °FClear.9 mph67%29.97 "Hg10 mi
11:53 PM
Tue, Jun 28
76 °FClear.12 mph24%29.91 "Hg10 mi
10:53 PM74 °FSunny.12 mph31%29.92 "Hg10 mi
9:53 PM79 °FSunny.13 mph26%29.92 "Hg10 mi
8:53 PM83 °FSunny.10 mph24%29.91 "Hg10 mi
7:53 PM88 °FSunny.13 mph18%29.91 "Hg10 mi
6:53 PM91 °FSunny.16 mph15%29.92 "Hg10 mi
5:53 PM93 °FSunny.15 mph15%29.94 "Hg10 mi
Weather by CustomWeather, © 2016

See weather overviewHow to use our weather pages